Location: Flotzheim
(48.8375°N, 10.8136°E)
Time: 14:18:41
(UTC+00:00)

Daily predictions for brighter satellites

Satellite Brightness Start Highest point End
(mag) Time Altitude Azimuth Time Altitude Azimuth Time Altitude Azimuth
Cosmos 1553 Rocket 4.0 18:06:31 10° S 18:12:35 86° E 18:18:44 10° N
Cosmos 2219 Rocket 3.6 18:07:22 10° SW 18:12:46 44° NW 18:18:10 10° NNE
STARLINK-1084 4.1 18:10:37 10° WNW 18:14:43 54° NNE 18:18:48 10° E
STARLINK-1237 4.0 18:10:55 10° SW 18:14:46 44° SE 18:18:40 10° ENE
STARLINK-1083 3.7 18:10:55 10° WNW 18:15:00 75° SSW 18:19:04 10° SE
KORONAS-FOTON 4.0 18:13:03 10° NNW 18:16:55 80° W 18:20:42 10° S
STARLINK-1209 2.7 18:14:35 10° WSW 18:17:31 84° SSE 18:20:28 10° ENE
Cosmos 1943 Rocket 3.1 18:12:40 10° NNW 18:17:36 32° NE 18:22:31 10° ESE
Cosmos 1939 Rocket 4.2 18:14:09 10° S 18:17:57 43° W 18:21:43 10° NNW
ATLAS 2AS CENTAUR R/B 4.2 18:12:28 10° NW 18:19:16 31° NNE 18:25:42 10° ENE
STARLINK-1202 3.9 18:15:35 10° SW 18:19:29 47° SE 18:23:25 10° ENE
STARLINK-1125 3.8 18:15:30 10° WNW 18:19:34 71° SSW 18:23:37 10° SE
STARLINK-1228 2.6 18:16:47 10° WSW 18:19:40 87° SSE 18:22:34 10° ENE
STARLINK-1098 4.0 18:15:38 10° WNW 18:19:43 56° NNE 18:23:48 10° E
SL-14 R/B 3.6 18:17:02 10° N 18:20:59 47° ENE 18:24:52 10° SSE
Cosmos 1980 3.9 18:18:17 10° SSW 18:23:58 79° WNW 18:29:42 10° NNE
STARLINK-1109 3.8 18:20:15 10° WNW 18:24:18 67° SSW 18:28:21 10° SE
SL-8 R/B 3.7 18:19:47 10° W 18:24:35 87° S 18:29:23 10° E
STARLINK-1123 4.0 18:20:37 10° WNW 18:24:43 58° NNE 18:28:48 10° E
ERBS 3.4 18:23:05 10° WSW 18:26:20 44° NNW 18:29:37 10° NE
STARLINK-1246 3.8 18:22:33 10° SW 18:26:32 53° SSE 18:30:33 10° ENE
Cosmos 2315 Rocket 4.3 18:22:55 10° SSE 18:28:51 45° E 18:34:52 10° NNE
STARLINK-1091 3.9 18:25:04 10° WNW 18:29:07 63° SSW 18:33:09 10° SE
Cosmos 1766 3.4 18:25:08 10° S 18:29:08 85° W 18:33:09 10° N
STARLINK-1097 3.9 18:25:35 10° WNW 18:29:41 60° NNE 18:33:37 11° E
ADEOS Rocket 3.6 18:24:06 10° N 18:30:57 70° WNW 18:37:04 10° SSW
USA 234 3.8 18:25:22 10° ENE 18:31:18 36° SE 18:37:12 10° SSW
STARLINK-1066 4.3 18:28:28 10° WNW 18:31:22 33° SW 18:34:16 10° SSE
STARLINK-1081 4.3 18:28:58 10° WNW 18:31:49 33° SW 18:34:39 10° SSE
STARLINK-67 2.9 18:29:18 10° W 18:31:51 57° NNW 18:34:25 10° ENE
STARLINK-1070 4.3 18:29:25 10° WNW 18:32:15 33° SW 18:35:06 10° SSE
STARLINK-1201 2.9 18:29:03 10° WSW 18:32:18 81° SSE 18:35:35 10° ENE
STARLINK-1069 4.3 18:29:50 10° WNW 18:32:42 33° SW 18:35:35 10° SSE
STARLINK-1085 4.3 18:30:17 10° WNW 18:33:09 32° SW 18:36:01 10° SSE
Cosmos 1626 2.1 18:29:51 10° N 18:33:32 59° ENE 18:37:10 10° SSE
STARLINK-1086 4.3 18:30:47 10° WNW 18:33:37 32° SW 18:36:26 10° SSE
STARLINK-1224 3.7 18:29:45 10° SW 18:33:44 58° SSE 18:37:45 10° ENE
Meteor 2-8 Rocket 4.4 18:27:46 10° S 18:33:53 72° E 18:40:00 10° NNE
STARLINK-1095 4.3 18:31:14 10° WNW 18:34:04 32° SW 18:36:53 10° SSE
STARLINK-1077 4.3 18:31:41 10° WNW 18:34:31 31° SW 18:37:19 10° SSE
STARLINK-1099 3.9 18:30:35 10° WNW 18:34:42 62° NNE 18:38:25 12° E
STARLINK-1075 4.4 18:32:08 10° WNW 18:34:58 31° SW 18:37:45 10° SSE
STARLINK-1203 3.5 18:31:25 10° SW 18:35:21 63° SSE 18:39:19 10° ENE
STARLINK-1093 4.4 18:32:32 10° WNW 18:35:23 31° SW 18:38:14 10° SSE
H-2A R/B 2.1 18:30:15 10° SSE 18:35:32 74° ENE 18:40:43 10° N
STARLINK-1074 4.4 18:33:00 10° WNW 18:35:51 31° SW 18:38:41 10° SSE
STARLINK-1087 4.4 18:33:29 10° W 18:36:17 30° SW 18:39:05 10° SSE
HJ-1C 4.3 18:33:23 10° S 18:36:40 52° W 18:39:58 10° NNW
STARLINK-1088 4.4 18:33:57 10° W 18:36:45 30° SW 18:39:33 10° SSE
STARLINK-1115 4.4 18:34:22 10° W 18:37:12 30° SW 18:40:01 10° SSE
STARLINK-1076 4.5 18:34:50 10° W 18:37:39 30° SW 18:40:28 10° SSE
SL-16 R/B 2.3 18:32:27 10° S 18:37:55 52° ESE 18:43:24 10° NE
STARLINK-1092 4.5 18:35:17 10° W 18:38:06 30° SW 18:40:54 10° SSE
STARLINK-1225 3.6 18:34:21 10° SW 18:38:22 62° SSE 18:42:24 10° ENE
STARLINK-1080 4.5 18:35:47 10° W 18:38:33 29° SW 18:41:18 10° SSE
STARLINK-1090 4.5 18:36:13 10° W 18:38:59 29° SW 18:41:45 10° SSE
STARLINK-1072 4.1 18:35:24 10° WNW 18:39:21 53° SSW 18:43:08 11° SE
STARLINK-1089 4.5 18:36:40 10° W 18:39:26 29° SW 18:42:11 10° SSE
STARLINK-1104 3.8 18:35:34 10° WNW 18:39:41 64° NNE 18:43:12 14° E
SL-08 RB Rocket 4.0 18:35:50 10° SE 18:40:10 49° ENE 18:44:36 10° N
Cosmos 2333 Rocket 4.3 18:35:34 10° WSW 18:40:30 30° NW 18:45:27 10° NNE
TSX-5 4.4 18:34:54 10° NNW 18:40:30 66° NE 18:44:38 11° SE
Resurs 01 Rocket 2.8 18:38:54 12° ESE 18:42:01 25° ENE 18:45:37 10° N
STARLINK-1230 3.6 18:39:04 10° SW 18:43:06 66° SSE 18:47:09 10° ENE
STARLINK-1096 4.2 18:39:46 10° WNW 18:43:41 50° SW 18:47:19 12° SE
STARLINK-1144 3.8 18:40:33 10° WNW 18:44:41 67° NNE 18:47:59 15° E
STARLINK-1233 2.9 18:42:35 10° WSW 18:45:43 81° NNW 18:48:52 10° ENE
STARLINK-1212 2.9 18:43:04 10° WSW 18:46:11 80° NNW 18:49:17 10° ENE
FREGAT/IRIS 2.3 18:43:30 10° SSE 18:46:12 88° WSW 18:48:57 10° NNW
STARLINK-1105 2.9 18:43:29 10° WSW 18:46:37 80° NNW 18:49:44 10° ENE
STARLINK-1206 2.9 18:43:59 10° WSW 18:47:06 79° NNW 18:50:09 11° ENE
Cosmos 1302 Rocket 4.0 18:42:04 10° NNW 18:47:23 81° ENE 18:52:41 10° SSE
STARLINK-1247 2.9 18:44:26 10° WSW 18:47:33 79° NNW 18:50:34 11° ENE
STARLINK-1243 3.5 18:43:52 10° SW 18:47:55 71° SSE 18:51:59 10° ENE
STARLINK-1227 3.0 18:44:51 10° WSW 18:47:59 78° NNW 18:51:02 11° ENE
STARLINK-1218 2.9 18:45:20 10° WSW 18:48:27 78° NNW 18:51:26 11° ENE
STARLINK-1079 4.3 18:44:50 10° WNW 18:48:43 46° SW 18:52:11 12° SE
Abrixas rocket 3.7 18:46:47 10° S 18:48:45 16° SSE 18:49:07 16° SE
STARLINK-1226 3.0 18:45:46 10° WSW 18:48:54 77° NNW 18:51:53 11° ENE
STARLINK-1254 3.0 18:46:12 10° WSW 18:49:20 77° NNW 18:52:20 11° ENE
STARLINK-1103 3.7 18:45:31 10° WNW 18:49:40 70° NNE 18:52:45 17° ESE
STARLINK-1215 3.0 18:46:41 10° WSW 18:49:48 76° NNW 18:52:44 11° ENE
SeaSat 1 4.1 18:45:44 10° NNE 18:50:14 36° NW 18:54:44 10° WSW
STARLINK-1231 3.0 18:47:08 10° WSW 18:50:14 76° NNW 18:53:10 11° ENE
Cosmos 1709 Rocket 4.0 18:44:07 10° N 18:50:23 84° E 18:56:32 10° S
Cosmos 1953 3.3 18:47:37 10° SE 18:50:54 25° E 18:54:13 10° NNE
STARLINK-1232 3.0 18:48:03 10° WSW 18:51:09 75° NNW 18:54:02 12° ENE
STARLINK-1217 3.0 18:48:29 10° WSW 18:51:36 74° NNW 18:54:28 12° ENE
STARLINK-1208 3.0 18:48:54 10° WSW 18:52:02 74° NNW 18:54:56 12° ENE
STARLINK-1229 3.0 18:49:23 10° WSW 18:52:30 74° NNW 18:55:20 12° ENE
STARLINK-1236 3.5 18:48:37 10° SW 18:52:41 75° SSE 18:56:45 10° ENE
STARLINK-1271 3.0 18:49:50 10° WSW 18:52:57 73° NNW 18:55:46 12° ENE
STARLINK-1116 4.4 18:49:17 10° WNW 18:53:08 43° SW 18:56:26 13° SSE
STARLINK-1270 3.0 18:50:18 10° WSW 18:53:24 73° NNW 18:56:13 12° ENE
STARLINK-1154 3.0 18:50:45 10° WSW 18:53:51 72° NNW 18:56:38 13° ENE
STARLINK-1101 3.7 18:50:30 10° WNW 18:54:39 73° NNE 18:57:32 19° ESE
MONITOR-E 4.0 18:52:06 10° S 18:54:44 70° WSW 18:57:23 10° NNW
STARLINK-1197 3.0 18:51:39 10° WSW 18:54:46 71° NNW 18:57:31 13° ENE
Cosmos 1269 Rocket 4.0 18:49:29 10° SSW 18:54:47 86° ESE 19:00:08 10° NNE
STARLINK-1189 3.1 18:52:07 10° WSW 18:55:13 71° NNW 18:57:57 13° ENE
STARLINK-1187 3.2 18:52:58 10° WSW 18:56:05 65° NNW 18:58:50 13° ENE
STARLINK-1188 3.1 18:53:01 10° WSW 18:56:08 70° NNW 18:58:49 13° ENE
STARLINK-1198 3.1 18:53:02 10° WSW 18:56:08 70° NNW 18:58:49 13° ENE
STARLINK-1235 3.3 18:53:41 10° W 18:56:48 60° NNW 18:59:33 13° ENE
SL-24 R/B 4.5 18:52:33 10° NNE 18:56:55 40° E 19:00:46 10° SSE
CZ-4C R/B 4.3 18:52:31 10° WNW 18:57:14 25° NNW 19:02:40 10° NE
STARLINK-1199 3.1 18:54:57 10° WSW 18:58:05 69° NNW 19:00:44 14° ENE
STARLINK-1191 3.1 18:55:24 10° WSW 18:58:31 68° NNW 19:01:10 14° ENE
STARLINK-1210 3.1 18:55:51 10° WSW 18:58:59 68° NNW 19:01:36 14° ENE
STARLINK-1221 3.1 18:56:18 10° WSW 18:59:26 67° NNW 19:02:02 14° ENE
STARLINK-1102 3.6 18:55:28 10° WNW 18:59:38 77° NNE 19:02:19 21° ESE
STARLINK-1219 3.2 18:56:46 10° WSW 18:59:53 67° NNW 19:02:29 14° ENE
STARLINK-1222 3.2 18:57:13 10° WSW 19:00:21 67° NNW 19:02:54 14° ENE
ISS -3.6 18:57:26 10° WNW 19:00:47 67° NNE 19:02:41 23° E
STARLINK-1211 3.2 18:57:40 10° WSW 19:00:47 66° NNW 19:03:20 15° ENE
STARLINK-1214 3.2 18:58:08 10° WSW 19:01:14 66° NNW 19:03:46 15° ENE
STARLINK-1245 3.2 18:58:36 10° WSW 19:01:42 65° NNW 19:04:10 15° ENE
Cosmos 2297 4.1 18:56:11 10° NNW 19:01:49 66° WSW 19:07:27 10° SSE
STARLINK-1238 3.2 18:58:59 10° WSW 19:02:06 65° NNW 19:04:37 15° ENE
Cosmos 1455 Rocket 3.7 18:58:11 10° SSW 19:02:27 58° WNW 19:06:48 10° N
Cosmos 2251 Rocket 4.2 18:57:47 10° SSE 19:02:29 32° E 19:07:13 10° NE
STARLINK-1269 3.5 18:58:26 10° WSW 19:02:31 84° SSE 19:06:11 13° ENE
STARLINK-1205 3.2 18:59:55 10° WSW 19:03:01 64° NNW 19:05:27 15° ENE
Cosmos 2074 Rocket 4.3 18:57:12 10° N 19:03:13 46° ENE 19:08:16 15° SE
BREEZE-M DEB (TANK) 3.8 18:55:19 10° W 19:03:17 83° N 19:05:20 22° E
STARLINK-1204 3.2 19:00:24 10° WSW 19:03:30 64° NNW 19:05:53 16° ENE
Cosmos 2084 Rocket 3.7 18:59:45 10° NW 19:04:12 61° NE 19:06:58 22° ESE
STARLINK-1111 3.6 19:00:28 10° WNW 19:04:38 80° NNE 19:07:06 23° ESE
STARLINK-1200 3.5 19:03:14 10° WSW 19:07:19 89° S 19:10:49 14° ENE
Cosmos 2237 Rocket 3.5 19:02:15 10° SW 19:07:36 43° NW 19:12:59 10° NNE
CZ-2C R/B 3.0 19:03:45 10° NNE 19:08:34 37° E 19:13:20 10° SSE
Cosmos 1626 Rocket 3.6 19:04:51 10° NNW 19:09:16 82° W 19:13:38 10° S
STARLINK-1073 3.6 19:05:27 10° WNW 19:09:36 84° NNE 19:11:53 26° ESE
STARLINK-1192 3.5 19:07:59 10° WSW 19:12:05 87° NNW 19:15:24 15° ENE
STARLINK-1121 3.6 19:10:25 10° WNW 19:14:34 88° NNE 19:16:39 29° ESE
Cosmos 292 Rocket 3.8 19:10:54 10° NNW 19:15:40 62° ENE 19:18:32 23° SE
ARGOS 3.6 19:10:39 10° S 19:16:00 63° WSW 19:21:22 10° NNW
STARLINK-1244 3.6 19:12:55 10° WSW 19:17:00 83° NNW 19:20:07 17° ENE
Cosmos 1602 Rocket 3.6 19:12:47 10° N 19:17:17 86° W 19:21:43 10° S
IRIDIUM 104 4.3 19:13:25 10° N 19:18:39 70° E 19:23:42 11° SSE
STARLINK-1106 3.5 19:15:22 10° WNW 19:19:32 87° SSW 19:21:25 31° ESE
STARLINK-1138 3.6 19:17:31 10° WSW 19:21:37 80° NNW 19:24:34 18° ENE
STARLINK-1234 3.7 19:19:45 10° W 19:22:37 44° NNW 19:24:04 24° NE
MOS 1 Rocket 3.7 19:17:53 10° NNE 19:22:59 52° E 19:28:14 10° S
USA 186 3.7 19:20:15 10° SSW 19:23:22 31° W 19:26:27 10° NNW
STARLINK-1112 3.6 19:20:23 10° WNW 19:24:33 83° SSW 19:26:14 35° ESE
STARLINK-1143 3.7 19:22:25 10° WSW 19:26:31 76° NNW 19:29:16 20° ENE
MetOp-A 4.1 19:21:25 11° SSE 19:26:38 86° WSW 19:32:02 10° NNW
IRIDIUM 114 4.2 19:22:34 10° N 19:27:50 83° E 19:32:51 11° S
CZ-2C R/B 4.0 19:23:42 10° S 19:28:30 44° W 19:33:09 10° NNW
COSMOS 2455 4.4 19:23:55 10° NNW 19:28:43 24° NNE 19:32:01 16° ENE
STARLINK-1128 3.6 19:25:22 10° WNW 19:29:31 78° SSW 19:31:01 38° SE
Cosmos 1437 3.0 19:28:41 10° N 19:31:24 44° ENE 19:31:24 44° ENE
Cosmos 1470 3.4 19:28:15 10° SSW 19:32:03 55° WNW 19:35:54 10° N
Cosmos 1726 Rocket 4.3 19:33:41 31° E 19:33:41 31° E 19:37:30 10° NNE
STARLINK-1113 3.6 19:30:21 10° WNW 19:34:29 74° SSW 19:35:47 42° SE
STARLINK-1241 3.8 19:30:48 10° WSW 19:34:51 70° NNW 19:37:13 24° ENE
SPOT 3 Rocket 3.9 19:29:56 10° S 19:35:07 67° WSW 19:40:21 10° NNW
Cosmos 1825 Rocket 3.6 19:31:57 10° N 19:36:22 61° ENE 19:37:53 37° SE
IRIDIUM 103 4.3 19:31:45 10° N 19:37:00 84° W 19:42:00 11° S
NOSS 3-4 (A) 4.4 19:32:17 10° NW 19:38:47 45° NE 19:42:42 25° E
NOSS 3-4 (C) 4.4 19:32:23 10° NW 19:38:52 45° NE 19:42:48 25° E
STARLINK-1119 3.7 19:35:19 10° WNW 19:39:27 70° SSW 19:40:34 45° SE
STARLINK-1239 3.8 19:35:45 10° WSW 19:39:47 67° NNW 19:41:56 26° ENE
Cosmos 2369 Rocket 2.1 19:34:33 10° NNW 19:40:18 86° ENE 19:43:14 30° SSE
Cosmos 1726 2.0 19:42:57 50° SSE 19:43:44 68° E 19:47:28 10° NNE
STARLINK-1114 3.7 19:40:21 10° WNW 19:44:28 65° SSW 19:45:24 48° SSE
STARLINK-1240 3.9 19:40:29 10° W 19:44:31 64° NNW 19:46:28 28° NE
Aureole 2 Rocket 2.4 19:41:49 10° NNW 19:45:20 76° WSW 19:45:56 56° S
Cosmos 1758 Rocket 3.4 19:41:45 10° N 19:46:09 89° E 19:47:54 36° S
Cosmos 2263 4.1 19:40:42 10° NNW 19:46:21 73° ENE 19:48:35 37° SE
Cosmos 1908 4.3 19:48:57 30° NE 19:48:57 30° NE 19:51:23 10° NNE
SAR-Lupe-2 4.3 19:44:56 10° NNE 19:47:27 37° NE 19:47:27 37° NE
CZ-2C R/B 4.3 19:43:55 10° N 19:48:38 62° WNW 19:53:16 10° SSW
NOSS 3-3 (A) 4.0 19:43:35 10° SSW 19:49:14 52° ESE 19:55:36 10° NE
STARLINK-1216 3.9 19:45:15 10° W 19:49:16 62° NNW 19:51:03 31° NE
NOSS 3-3 (C) 4.0 19:43:42 10° SSW 19:49:21 52° ESE 19:55:42 10° NE
STARLINK-1130 (DARKSAT) 3.8 19:45:19 10° WNW 19:49:25 61° SSW 19:50:10 50° SSE
Meteor 2-17 Rocket 4.5 19:45:10 10° N 19:51:16 61° ENE 19:53:46 36° SE
Cosmos 1953 Rocket 3.6 19:48:14 10° N 19:52:40 61° ENE 19:53:22 53° ESE
STARLINK-1209 4.0 19:49:55 10° WNW 19:52:41 36° N 19:52:50 35° N
Terra 3.3 19:53:53 22° ENE 19:53:54 22° ENE 19:57:29 10° NNE
STARLINK-1237 4.0 19:50:02 10° W 19:54:03 60° NNW 19:55:38 34° NE
STARLINK-1084 3.8 19:50:17 10° WNW 19:54:22 57° SSW 19:54:56 51° S
STARLINK-1228 4.0 19:52:08 10° WNW 19:54:50 35° N 19:54:50 35° N
Cosmos 2184 Rocket 4.0 19:48:53 10° N 19:55:15 83° W 19:59:37 21° S
Spot 2 Rocket 3.5 19:55:41 44° SE 19:57:11 67° ENE 20:02:17 10° N
STARLINK-1202 4.0 19:54:48 10° W 19:58:49 58° NNW 20:00:11 36° NE
STARLINK-1098 3.9 19:55:18 10° WNW 19:59:20 53° SSW 19:59:43 51° SSW
Cosmos 1606 Rocket 3.4 19:59:07 56° SSE 19:59:56 72° E 20:04:24 10° NNE
Cosmos 1943 Rocket 2.7 19:56:14 10° NW 20:01:36 53° WSW 20:04:35 26° S
SPOT 1/Viking Rocket 3.8 20:00:50 45° E 20:01:42 50° ENE 20:06:44 10° N
STARLINK-1123 4.0 20:00:17 10° WNW 20:04:18 49° SW 20:04:30 49° SSW
Cosmos 1943 3.2 20:01:04 24° S 20:04:24 58° ESE 20:09:59 10° NE
STARLINK-1246 4.1 20:02:02 10° W 20:06:03 55° NNW 20:07:11 40° NE
Meteor 2-10 4.2 20:01:06 10° SSW 20:06:27 80° WNW 20:12:03 10° N
SL-8 R/B 3.6 20:02:20 10° W 20:07:05 68° SSW 20:07:34 62° SSE
STARLINK-1201 4.2 20:05:38 10° W 20:08:41 40° N 20:08:41 40° N
STARLINK-1097 4.2 20:05:16 10° WNW 20:09:15 46° SW 20:09:16 46° SW
ATLAS 2AS CENTAUR R/B 3.0 20:04:03 10° NW 20:11:45 64° NE 20:14:22 41° ESE
STARLINK-1224 4.2 20:09:12 10° W 20:13:11 53° NNW 20:13:58 45° NNE
STARLINK-1099 4.3 20:10:17 10° WNW 20:14:04 42° SW 20:14:04 42° SW
STARLINK-1203 4.2 20:10:36 10° W 20:14:29 50° NNW 20:15:06 45° NNE
USA 234 3.2 20:08:11 10° NE 20:14:45 85° NNW 20:21:18 10° WSW
Cosmos 2154 Rocket 4.0 20:09:57 10° N 20:16:21 88° W 20:19:00 38° S
USA 245 4.0 20:15:17 57° SSE 20:16:24 87° ENE 20:22:20 10° NNW
STARLINK-1225 4.2 20:13:48 10° W 20:17:48 52° NNW 20:18:23 47° NNE
Resurs 01 Rocket 2.7 20:16:28 27° SSW 20:18:19 41° W 20:22:31 10° NNW
Cosmos 1328 4.0 20:16:24 10° NNW 20:20:23 65° W 20:20:25 65° W
Cosmos 921 Rocket 4.1 20:18:21 10° N 20:21:21 32° NNE 20:21:21 32° NNE
SL-16 R/B 3.9 20:17:14 10° WSW 20:22:18 32° NW 20:27:23 10° NNE
STARLINK-1230 4.2 20:18:35 10° W 20:22:34 50° N 20:22:57 48° N
Cosmos 2228 3.1 20:22:39 64° SW 20:23:07 71° WNW 20:27:27 10° N
Cosmos 967 Rocket 4.4 20:18:04 10° SSW 20:24:31 80° SE 20:31:02 10° NE
Cosmos 1953 4.2 20:23:44 10° SW 20:27:13 29° WNW 20:30:44 10° N
STARLINK-1243 4.3 20:23:26 10° W 20:27:25 49° N 20:27:36 49° N
Cosmos 962 Rocket 4.3 20:24:24 10° N 20:30:39 77° E 20:31:43 61° SE
STARLINK-1236 4.3 20:28:15 10° W 20:32:12 49° N 20:32:12 49° N
Nadezhda 1 Rocket 4.2 20:29:47 23° SSW 20:34:00 74° W 20:40:26 10° N
SL-8 Rocket 4.0 20:30:20 10° N 20:36:35 60° ENE 20:37:01 58° E
ISS -1.3 20:34:23 10° W 20:35:39 19° W 20:35:39 19° W
Cosmos 2058 Rocket 3.5 20:42:38 58° N 20:42:38 58° N 20:46:19 10° N
SPOT 5 3.2 20:44:25 50° N 20:44:25 50° N 20:47:46 10° N
Cosmos 614 Rocket 4.5 20:44:49 50° NE 20:44:49 50° NE 20:48:42 10° NNE
Cosmos 1603 4.1 20:38:08 10° SW 20:43:43 63° WNW 20:49:19 10° NNE
Cosmos 2366 rocket 4.1 20:38:20 10° N 20:44:18 54° ENE 20:44:18 54° ENE
CZ-4C R/B 4.4 20:42:51 10° NW 20:47:59 25° NNE 20:53:35 11° ENE
IGS 5A 4.3 20:49:02 48° WNW 20:49:02 48° WNW 20:52:25 10° NNW
ERS-1 Rocket 3.0 20:48:38 80° NNW 20:48:38 80° NNW 20:53:25 10° NNW
CZ-2C R/B 4.1 20:44:11 10° N 20:48:50 35° WNW 20:53:28 10° SW
Landsat 7 4.2 20:49:40 58° W 20:49:40 58° W 20:54:20 10° NNW
Cosmos 1959 Rocket 4.4 20:53:33 10° N 20:59:53 72° ENE 20:59:53 72° ENE
Cosmos 1656 Rocket 4.2 20:56:19 10° NW 21:01:46 49° WSW 21:02:03 48° WSW
Aureole 1 Rocket 4.2 21:01:51 37° SSW 21:05:20 85° WNW 21:11:51 10° NNE
COSMOS 2455 2.9 21:09:34 10° NNW 21:15:09 72° N 21:15:09 72° N
In-Cosmos 22 Rocket 4.4 21:15:03 10° NNW 21:20:10 70° NNW 21:20:10 70° NNW
Cosmos 2369 Rocket 4.3 21:20:02 10° WNW 21:23:33 17° W 21:25:04 15° WSW
NOSS 3-4 (A) 4.0 21:23:10 10° NW 21:30:02 62° SW 21:30:09 61° SW
NOSS 3-4 (C) 3.9 21:23:16 10° NW 21:30:09 62° SW 21:30:14 62° SW
Terra 3.0 21:32:46 39° NW 21:32:46 39° NW 21:35:59 10° NNW
ATLAS CENTAUR R/B 4.1 21:30:28 10° N 21:31:52 13° NNE 21:31:52 13° NNE
USA 234 4.0 21:51:13 10° ENE 21:57:26 48° NNW 22:03:39 10° W
ATLAS 2AS CENTAUR R/B 3.7 21:55:36 10° NW 22:01:48 37° WSW 22:01:48 37° WSW
Cosmos 1697 Rocket 3.9 22:06:19 10° NNW 22:10:12 37° NNE 22:10:12 37° NNE
Mayak 1.5 22:14:27 10° N 22:15:32 17° N 22:15:32 17° N
Cosmos 1980 Rocket 3.6 22:31:53 10° NNW 22:35:28 33° NNE 22:35:28 33° NNE
CZ-4C R/B 3.5 22:31:36 10° NW 22:38:12 47° NE 22:38:45 47° NE
Cosmos 2082 Rocket 4.3 23:00:52 19° NE 23:00:52 19° NE 23:02:34 10° NE
ATLAS 5 CENTAUR R/B 4.1 23:20:05 20° NNE 23:20:05 20° NNE 23:22:10 10° NNE
Cosmos 1833 Rocket 4.3 23:28:31 31° NNE 23:28:31 31° NNE 23:31:22 10° NNE
USA 234 4.1 23:33:37 10° ENE 23:39:47 46° N 23:45:57 10° WNW
SL-16 R/B 3.6 23:52:44 38° ENE 23:52:44 38° ENE 23:58:14 10° N
